カタログに戻る

STARLINK-37309

運用中通信VLEO
NORAD 69364·PAYLOAD·🇺🇸 United States

打ち上げ Jun 4, 2026 から Cape Canaveral Space Force Station

Loading…

次のパス (今後24時間)

TLE

最新Source: CelesTrak SupGP

元期: Sep 15, 2026, 03:01 UTC

1 69364C 26123M   26258.12618056 -.00086957  00000+0 -25701-2 0  2585
2 69364  53.1589 167.1554 0001317  84.6918 168.1826 15.34423102    16

AllMySatでSTARLINK-37309をリアルタイム追跡

Download on the App Store